GFSSE_sfc_thetae_273.txt.gz
Theta_e
333 339 349 352 351 351 351 353 354 353 353 351 349 349 348 349 348 349 348 348 348 345 343 342 342 342 341 341 340 340 342 344 344 344 342 340 338 337 337 338 339 338 343
335 342 346 350 351 351 351 352 353 353 352 350 349 349 348 348 348 346 348 348 347 344 342 341 341 341 341 342 343 343 342 343 340 340 339 338 339 336 336 336 343 341 343
336 344 345 347 349 350 350 349 350 352 352 351 350 349 349 348 347 346 347 347 347 344 343 341 340 342 344 343 343 341 341 341 339 337 336 331 330 335 334 337 342 342 342
321 338 346 344 348 349 349 349 348 350 352 352 351 351 349 349 348 347 346 346 347 346 345 344 344 343 342 342 342 341 340 339 337 334 330 330 328 333 332 335 339 340 341
311 320 336 343 347 348 349 349 349 349 349 350 351 350 350 349 349 347 347 346 347 346 346 344 343 343 342 342 342 339 336 337 334 332 330 330 329 331 331 332 337 338 338
311 311 323 331 347 348 348 349 348 348 349 348 348 348 349 348 348 347 346 346 346 346 346 343 341 341 342 341 339 336 335 333 332 329 328 330 329 333 333 335 337 338 340
312 311 314 319 332 345 346 348 347 347 348 347 347 347 347 347 347 346 346 346 346 345 346 344 342 341 340 339 338 336 334 332 327 327 328 329 329 334 335 335 334 335 338
309 313 313 315 317 326 343 345 346 346 347 347 347 346 346 346 346 346 346 345 345 345 344 343 341 340 339 338 337 336 332 329 326 326 327 328 332 335 334 332 333 332 336
308 311 313 316 315 318 327 337 341 344 344 345 345 345 343 343 344 344 343 344 344 343 343 342 340 339 339 337 336 334 329 327 326 326 326 327 332 333 332 331 332 334 335
309 309 311 314 314 317 319 323 332 336 340 341 340 338 336 336 338 338 337 341 343 342 342 340 338 338 337 336 334 330 328 327 324 324 326 326 333 332 333 332 333 333 332
307 309 310 310 311 314 317 321 329 330 331 334 335 332 331 341 341 339 336 336 340 340 340 339 338 337 335 332 329 327 326 325 324 324 324 329 332 330 333 334 333 332 332
305 306 308 310 310 313 315 325 329 339 340 341 341 340 341 341 341 339 333 330 335 334 337 337 337 334 329 329 326 324 325 325 325 325 325 329 331 331 334 336 334 333 333
305 307 308 309 310 312 317 324 327 331 338 339 341 340 340 341 340 339 340 336 339 328 335 333 334 331 330 328 327 324 324 325 325 325 325 328 330 331 333 336 336 336 336
304 305 308 310 309 310 315 320 324 322 322 336 337 340 339 339 338 337 337 337 337 335 333 332 331 330 329 330 329 325 323 324 325 325 324 324 328 329 331 333 335 335 335
302 304 306 307 308 309 311 315 319 324 323 323 329 337 340 338 337 336 335 335 334 334 332 331 330 328 327 326 327 325 322 323 324 324 325 319 324 328 331 332 333 335 336
301 303 305 306 308 310 309 311 314 318 323 320 322 332 336 338 338 336 335 332 334 334 333 331 330 328 327 326 325 323 322 322 322 323 322 322 322 326 329 332 332 334 335
299 301 302 305 307 307 307 309 313 315 321 320 320 321 322 334 337 337 335 333 332 334 331 329 328 327 326 323 322 321 320 320 320 321 321 322 322 321 325 329 331 331 333
297 298 300 302 304 306 307 309 309 312 314 318 322 323 321 324 330 336 335 332 332 333 330 327 327 325 324 322 320 317 317 317 319 319 320 320 322 323 321 325 328 331 332
296 297 298 300 302 304 306 309 309 310 314 317 319 322 323 327 331 333 333 333 332 331 331 329 327 325 323 321 322 319 317 316 316 316 316 318 320 322 323 322 322 324 329
295 297 298 300 301 303 305 307 309 310 312 315 319 319 325 326 329 331 331 332 331 329 329 328 326 326 324 323 321 319 320 318 317 316 316 316 318 320 322 323 322 321 320
294 295 297 298 300 302 303 305 307 307 310 312 316 320 319 322 324 327 329 327 330 329 327 328 326 324 324 324 320 318 317 316 315 315 317 317 317 319 321 322 323 324 323
292 294 296 298 300 302 304 305 307 308 309 311 316 315 318 318 319 325 328 327 328 328 326 325 325 322 323 322 316 315 309 313 315 316 315 315 317 319 319 321 322 323 323
291 292 294 296 298 302 303 305 306 308 309 310 311 314 320 318 318 326 327 327 328 327 325 325 324 321 318 318 316 313 305 307 313 316 316 314 314 315 317 320 321 321 322
290 293 293 295 298 302 303 303 304 305 304 307 310 315 319 319 317 317 325 323 322 323 324 324 324 321 320 315 315 316 315 314 309 309 315 314 314 312 315 317 318 319 320
290 291 292 295 297 302 303 302 304 306 307 308 310 312 315 316 316 318 320 323 322 321 323 322 321 321 320 318 315 315 316 314 315 311 309 312 316 314 315 316 318 319 320
290 290 291 293 297 303 303 302 305 304 306 308 310 311 313 314 315 316 319 323 323 322 323 322 322 321 321 321 318 317 315 314 312 310 308 310 312 315 317 318 318 319 321

GFSSE_sfc_thetae_276.txt.gz
Theta_e
326 339 348 352 354 352 351 353 352 352 353 350 349 349 349 348 348 349 350 350 349 346 345 344 344 343 341 341 340 341 342 344 344 343 343 341 340 338 338 339 340 341 344
325 333 342 349 353 353 352 352 352 352 351 350 349 349 348 348 348 347 349 349 349 345 344 343 342 341 341 341 343 344 344 343 342 341 340 340 340 338 338 341 343 341 344
315 324 342 347 350 351 351 351 350 350 351 350 349 349 348 348 348 347 347 347 348 345 343 342 341 341 343 344 343 343 340 341 339 338 336 326 328 338 336 341 343 343 344
311 318 326 335 348 349 350 350 350 350 350 351 350 350 349 349 348 347 346 346 347 346 343 342 341 343 343 343 344 343 340 339 337 336 328 327 328 336 335 340 341 342 343
308 311 321 330 342 348 348 348 349 350 350 350 350 350 349 349 349 349 348 346 346 346 345 344 344 344 343 342 342 341 340 337 334 331 324 324 325 333 334 336 338 339 341
307 311 317 322 329 339 347 348 349 349 349 350 350 350 348 349 349 348 347 347 346 346 345 345 345 343 343 343 341 338 338 336 333 323 326 329 325 333 334 339 339 340 340
304 310 313 321 319 325 334 346 346 348 349 349 350 349 348 347 347 347 347 346 346 345 345 344 343 344 342 341 339 337 335 333 323 321 323 324 325 336 334 337 337 338 339
303 308 313 317 320 320 320 331 344 345 347 348 347 346 347 347 347 347 346 345 346 345 346 344 342 342 340 339 339 336 332 329 325 321 323 324 331 335 335 337 335 335 337
304 306 308 312 315 318 321 319 325 340 342 344 345 344 342 343 344 344 344 344 345 345 345 342 341 341 339 339 338 333 329 328 321 321 324 323 334 336 336 333 334 334 336
306 305 306 307 310 313 318 320 323 328 336 339 339 338 336 335 338 338 337 340 343 343 343 342 340 340 339 338 334 330 327 326 320 319 321 323 335 335 334 332 332 334 335
305 305 305 307 307 309 315 318 325 328 330 333 334 332 330 337 338 336 335 337 341 341 340 340 339 338 335 332 330 327 325 321 319 318 320 330 335 333 335 333 332 334 334
300 302 304 305 307 307 310 319 323 328 334 337 337 337 336 337 337 337 332 330 336 335 337 339 337 334 330 326 324 325 322 320 318 318 318 330 335 332 332 334 334 334 333
300 302 304 305 306 307 307 315 323 324 327 335 337 337 336 337 336 334 335 333 335 327 335 335 333 330 327 325 321 320 319 319 318 319 322 329 333 331 332 336 336 334 334
299 301 303 304 305 306 308 308 318 322 322 323 328 337 335 334 335 335 335 334 334 333 331 331 329 326 325 326 324 320 319 318 318 319 321 324 330 330 333 335 336 336 336
296 298 299 301 303 305 307 306 308 316 323 323 323 327 336 334 334 335 334 334 333 332 330 328 327 325 324 323 323 322 319 317 318 319 319 319 326 330 331 333 335 336 336
295 296 298 299 300 304 304 306 306 309 313 321 319 321 323 334 335 334 333 333 333 332 330 328 326 324 323 323 321 321 318 317 317 318 318 318 323 327 330 331 334 334 335
294 295 296 297 299 300 302 304 305 306 312 317 318 319 321 322 332 334 333 332 332 332 329 327 326 325 322 321 320 318 318 316 316 316 316 318 319 321 326 331 331 332 334
293 293 295 298 298 299 300 302 304 305 307 310 316 319 320 321 324 327 329 332 332 330 330 327 326 323 322 320 318 316 314 314 314 315 316 316 318 319 321 327 330 331 332
292 293 293 295 296 298 300 301 302 304 306 309 312 314 319 321 326 328 327 328 333 330 329 327 325 322 319 317 316 313 311 311 311 315 314 315 316 317 318 320 322 324 330
291 292 293 294 296 298 299 300 302 303 305 305 311 313 317 319 324 328 329 329 329 329 328 326 324 323 320 318 317 314 311 310 310 310 310 313 314 316 317 318 318 318 321
291 291 292 293 295 297 297 298 299 300 302 305 310 313 315 321 322 324 324 324 327 327 327 327 325 322 319 320 316 315 312 311 310 310 310 310 311 314 315 317 317 318 318
289 290 291 292 293 294 295 298 300 300 303 304 307 311 313 314 317 318 322 325 323 322 325 325 325 322 321 320 316 313 308 309 310 310 310 312 311 313 314 316 317 318 319
287 288 290 293 293 295 297 298 300 301 302 303 307 309 311 314 315 316 323 324 326 325 323 323 323 323 319 321 319 312 307 307 308 311 311 311 312 313 314 315 316 318 318
287 289 290 291 293 295 297 298 298 298 298 301 304 308 309 315 315 315 319 323 325 325 325 324 326 324 322 317 316 316 313 312 308 305 310 311 311 310 311 311 315 316 316
287 288 289 291 292 294 297 299 300 298 299 303 303 306 309 312 314 314 317 320 318 322 325 325 324 324 321 319 316 314 314 314 312 307 305 307 309 309 308 310 311 312 314
286 287 289 290 290 293 296 300 299 298 299 301 303 304 307 309 311 312 316 319 319 317 321 322 324 322 320 319 318 317 315 314 312 309 307 308 307 310 310 310 312 312 313

GFSSE_sfc_thetae_279.txt.gz
Theta_e
316 325 338 344 353 353 352 353 354 353 353 350 349 349 349 349 348 349 351 351 351 349 348 346 346 344 343 343 342 342 344 345 345 344 343 341 339 339 339 340 343 341 345
315 325 334 344 351 353 353 353 352 352 352 350 349 349 349 348 348 347 349 349 349 347 346 345 344 343 342 341 343 344 344 344 343 342 341 341 341 339 340 341 343 342 345
311 321 328 336 346 350 352 351 351 351 351 351 349 349 349 349 348 347 347 349 349 346 344 343 343 341 341 343 343 344 343 343 340 338 335 326 332 339 343 343 345 345 345
309 316 320 331 340 347 349 349 349 350 350 351 350 349 349 349 348 347 346 348 347 345 344 342 341 342 344 344 344 342 342 340 338 336 326 326 331 339 343 343 343 344 345
306 311 319 325 333 340 346 348 348 348 349 350 351 351 350 349 349 349 348 347 347 347 344 343 343 343 343 344 344 341 340 338 336 330 323 324 326 335 340 341 341 342 343
302 310 320 323 322 329 333 344 347 347 349 349 349 350 351 351 349 348 348 347 346 346 346 345 346 344 343 343 342 341 339 337 334 322 322 329 325 335 339 340 339 340 341
301 308 312 323 319 320 324 330 339 347 347 349 348 349 349 349 348 348 347 346 346 346 345 346 346 345 343 342 341 340 338 334 324 320 324 322 324 336 338 339 339 340 340
301 305 310 316 320 319 320 320 328 338 345 346 347 347 348 347 346 347 347 346 345 346 345 345 345 344 342 341 339 338 334 330 322 320 321 322 333 336 336 337 338 338 338
303 303 304 307 312 316 319 322 321 327 333 342 344 345 343 342 342 343 344 345 345 345 344 343 343 342 341 340 338 335 330 328 319 320 323 322 335 336 336 338 336 337 337
303 303 303 305 306 307 312 318 322 325 327 334 337 338 336 336 336 338 336 340 344 344 343 342 341 341 340 338 336 331 327 326 319 319 319 323 335 336 339 337 336 335 337
301 302 303 303 304 306 308 311 318 324 326 329 331 330 331 337 337 335 335 336 341 341 342 341 341 339 336 334 332 328 325 320 319 318 317 328 336 336 336 334 333 333 336
296 299 302 302 303 305 307 308 312 321 324 329 335 337 334 335 337 337 332 331 335 335 338 340 339 336 331 329 327 325 321 319 318 316 316 330 336 334 334 335 334 333 336
296 297 299 299 301 302 304 306 309 314 321 323 328 336 337 336 334 334 335 334 335 328 335 337 335 332 329 325 322 321 320 318 317 317 319 328 335 335 333 334 336 335 336
294 295 297 298 299 300 302 304 305 307 315 321 322 325 334 335 334 333 333 334 334 334 333 333 332 328 326 324 322 320 318 317 316 317 318 324 332 335 332 333 337 336 335
293 294 295 296 297 299 299 302 304 304 307 316 322 323 325 333 333 333 333 333 333 333 333 332 329 326 324 323 321 319 318 317 316 317 318 319 326 333 332 332 336 338 336
293 293 294 295 296 298 298 299 300 304 305 308 313 318 321 323 330 333 333 334 332 333 332 331 328 325 323 323 320 319 318 317 315 315 318 319 323 329 332 333 335 336 337
292 293 293 294 295 296 297 298 300 302 304 306 311 315 318 319 321 324 332 333 333 333 331 329 327 326 323 322 321 319 318 316 315 315 316 317 320 322 327 332 333 335 336
291 291 292 294 293 294 295 297 299 300 302 304 306 309 314 317 319 321 324 329 332 333 331 329 326 324 322 321 320 319 317 315 314 314 314 316 317 319 322 328 331 334 334
290 290 291 292 293 294 295 297 298 300 301 303 305 308 312 315 320 321 325 327 329 331 330 329 326 324 322 320 320 315 314 313 313 314 313 313 315 316 316 321 324 325 331
289 290 290 292 292 293 295 296 297 299 300 302 303 306 310 312 315 319 325 327 327 329 328 327 326 325 323 321 320 315 310 310 310 310 311 313 313 315 316 316 318 319 321
288 289 289 289 290 291 292 291 292 293 298 300 302 306 308 311 314 319 323 325 326 326 327 327 326 323 319 320 316 313 309 308 308 309 310 311 310 312 313 316 317 317 318
286 287 288 289 290 293 292 293 294 295 297 300 302 304 309 311 314 317 318 322 324 326 326 326 324 321 320 319 314 313 307 308 308 310 310 310 310 311 312 314 315 316 316
284 285 287 289 290 291 292 294 296 297 297 298 300 301 307 311 312 314 315 317 321 323 323 325 325 322 318 318 318 313 306 305 307 310 309 310 311 310 312 312 314 316 317
284 285 286 289 290 291 292 293 294 294 295 297 299 302 308 311 311 313 314 315 319 322 321 323 324 323 321 316 318 316 314 313 308 306 309 310 310 310 311 311 313 315 316
284 284 287 289 289 291 291 293 294 295 298 299 300 300 304 307 311 313 313 314 318 321 323 322 321 322 322 320 317 314 313 311 312 309 305 307 310 310 311 311 312 313 314
283 283 285 286 288 289 290 292 294 295 299 298 298 300 304 306 309 310 312 313 315 319 320 323 324 323 322 321 319 317 315 312 311 309 307 308 308 309 311 309 309 311 312

GFSSE_sfc_thetae_285.txt.gz
Theta_e
307 315 330 342 348 350 349 348 348 347 347 348 348 348 348 349 351 352 352 352 352 352 351 349 348 347 346 347 346 347 348 347 346 346 344 342 340 341 341 342 344 341 345
306 315 327 335 344 347 348 348 346 350 349 348 347 348 348 348 349 350 351 352 351 350 349 348 347 345 345 346 346 347 347 346 344 343 342 342 343 342 341 342 343 341 346
307 314 319 330 333 340 342 346 347 347 347 348 348 347 347 348 347 349 349 350 351 349 348 346 345 343 344 344 343 345 344 344 342 341 339 331 333 341 341 342 344 345 346
307 313 319 326 326 327 332 337 341 345 347 348 349 348 348 348 347 347 347 348 349 347 346 346 344 343 342 341 342 344 342 341 340 337 329 331 335 341 341 342 344 345 345
303 310 317 323 323 323 323 327 331 337 343 346 348 348 348 348 348 348 348 347 348 347 346 345 344 342 342 341 342 342 342 340 337 329 325 325 329 340 343 343 344 345 343
301 305 311 318 320 321 321 322 322 329 335 339 344 346 347 350 350 348 348 348 348 347 346 345 344 344 343 343 343 343 342 339 333 321 322 326 327 341 343 342 343 343 342
299 302 304 314 316 317 319 321 321 321 324 330 334 342 345 346 347 348 348 348 347 346 346 346 345 344 343 343 343 342 340 336 321 319 319 323 325 340 342 341 342 342 342
299 301 302 306 310 312 314 316 318 319 320 323 326 331 338 343 344 346 346 346 346 345 346 345 344 344 342 342 342 341 337 329 321 319 319 322 327 340 341 341 341 341 341
298 299 298 299 302 305 308 311 312 314 317 320 322 324 327 333 340 342 342 343 345 345 345 344 342 342 342 342 341 337 333 327 318 320 321 321 327 338 340 340 340 339 340
297 297 296 296 298 298 299 306 308 309 312 315 319 324 325 328 332 336 336 339 342 343 343 342 341 342 341 341 339 334 329 325 317 319 320 320 329 337 339 339 338 339 338
295 295 295 295 295 296 297 299 303 305 308 309 312 318 322 324 330 334 333 335 339 340 340 340 340 340 337 336 334 331 326 320 316 317 319 325 330 335 336 339 338 338 338
291 293 294 294 294 295 297 296 298 300 302 304 306 310 316 321 323 326 329 328 333 334 337 339 339 336 331 334 332 328 325 319 317 316 319 327 331 334 335 339 338 337 337
291 292 294 293 294 293 294 296 296 297 299 301 303 305 309 316 323 324 333 332 331 325 334 336 335 335 334 332 329 325 321 318 318 318 319 325 331 333 335 338 338 338 336
290 291 292 293 293 293 294 294 294 295 296 297 299 303 305 308 315 317 319 332 332 333 331 333 333 333 332 330 327 323 321 319 317 318 317 321 328 333 335 336 336 336 334
289 290 290 291 291 293 293 293 293 293 294 295 298 301 304 305 308 314 316 317 330 333 332 332 332 332 331 327 325 323 320 318 316 315 315 316 323 331 335 334 334 336 336
290 289 291 291 291 292 292 292 292 293 294 296 297 299 302 303 306 310 315 317 317 329 333 333 332 332 330 328 324 322 321 319 317 315 314 314 320 326 334 337 335 334 335
289 290 290 290 292 291 291 292 293 293 295 294 296 298 300 302 302 305 309 314 315 316 317 333 332 332 329 327 324 322 321 319 318 316 314 314 315 320 326 334 335 335 334
288 288 289 291 290 291 291 291 291 292 294 295 296 298 299 301 302 303 305 308 315 319 317 317 330 329 328 325 324 321 320 319 317 316 314 314 315 317 321 327 332 334 335
287 287 288 289 289 289 290 290 291 292 292 293 294 294 297 300 302 303 304 307 314 319 320 320 324 328 326 325 324 322 320 318 318 316 314 314 315 316 317 321 323 325 331
286 286 286 287 288 288 289 289 290 292 292 293 293 294 297 299 302 302 304 307 312 313 316 322 324 326 327 326 324 322 319 319 318 316 314 314 315 316 317 317 319 320 321
286 286 286 286 286 287 286 286 287 287 291 291 293 295 296 297 299 302 303 305 308 308 309 319 323 324 324 324 320 314 314 317 315 316 315 313 313 315 315 316 316 316 318
284 284 285 285 285 286 286 287 288 290 290 291 293 295 296 297 298 299 301 304 306 308 312 316 320 322 322 324 319 314 308 310 312 314 314 313 313 314 313 315 314 314 315
283 283 284 284 285 285 286 288 288 290 290 290 292 294 296 298 299 299 300 303 306 309 310 314 318 320 319 320 319 313 306 307 310 312 313 313 312 311 312 313 314 315 315
283 283 283 284 284 285 286 286 287 286 286 289 291 293 295 298 298 300 302 303 306 309 310 311 316 319 321 318 319 318 314 312 308 305 310 311 312 310 311 312 312 313 314
283 282 282 283 283 284 286 287 285 286 288 290 291 292 294 297 298 299 300 303 307 310 310 311 312 317 319 318 318 317 315 311 312 309 305 308 309 311 312 311 311 311 311
282 282 282 281 282 283 284 286 285 285 287 288 289 289 293 295 298 299 301 303 308 309 310 312 313 315 318 319 319 319 317 312 309 309 308 308 309 311 312 311 311 310 311

GFSSE_sfc_thetae_288.txt.gz
Theta_e
304 311 329 334 341 346 347 347 347 347 346 346 346 347 348 348 350 352 352 352 352 352 351 350 349 348 349 347 347 346 347 346 346 346 344 342 340 340 341 341 344 340 346
305 313 327 329 331 337 342 344 346 347 346 346 346 345 345 347 349 349 351 350 351 350 350 350 348 346 347 347 348 347 347 346 344 344 343 342 342 341 341 342 343 340 346
306 314 317 327 327 328 332 336 339 344 345 345 346 347 346 346 347 349 349 350 348 350 349 349 347 346 345 346 346 347 345 345 343 341 340 332 334 341 342 342 343 345 346
306 311 315 324 324 325 326 327 332 336 340 345 345 346 347 347 347 347 349 348 348 348 348 348 347 344 345 344 343 345 344 343 341 338 330 330 334 341 341 342 343 345 345
301 305 313 319 320 322 323 324 325 326 330 337 340 344 344 347 347 348 348 348 348 347 347 346 345 344 344 343 343 345 344 341 338 331 327 327 329 339 342 342 343 345 343
299 301 308 315 317 317 319 321 321 322 324 327 331 336 341 344 345 346 347 348 347 347 347 347 347 346 344 343 343 344 343 340 334 323 323 327 328 339 343 342 343 343 342
297 299 301 311 312 313 315 316 316 318 319 322 324 328 332 336 341 344 345 346 346 347 346 345 345 345 343 342 343 343 342 337 322 320 322 323 326 340 343 343 343 343 342
297 297 298 303 307 309 310 311 312 313 315 317 319 321 324 328 331 338 343 344 344 346 345 345 343 343 343 343 342 342 339 331 321 319 320 322 328 336 343 342 343 342 342
296 296 295 296 300 303 306 307 308 309 310 311 313 316 319 321 326 333 337 342 344 344 345 343 342 342 342 342 342 339 334 327 318 318 320 320 329 337 342 341 341 341 341
294 294 294 294 295 295 296 303 305 305 307 307 308 309 312 319 323 326 330 336 341 342 343 342 341 341 341 340 339 335 330 326 318 318 319 320 330 336 339 340 341 340 339
294 293 293 293 293 294 295 297 300 302 303 304 304 305 307 311 315 321 321 324 337 339 340 341 341 339 337 335 335 332 327 322 318 318 318 325 331 335 338 339 339 339 339
290 291 292 292 292 292 295 294 295 296 297 298 300 301 303 305 311 318 320 322 329 332 336 338 339 336 331 334 334 330 328 320 316 316 318 327 332 334 336 340 339 339 338
289 291 292 291 292 291 292 293 293 294 294 296 297 298 300 303 306 312 318 319 322 325 331 334 335 334 332 333 332 331 323 319 317 317 319 325 332 334 335 337 340 338 338
290 290 291 291 291 291 292 292 291 291 293 293 294 297 299 300 302 305 311 316 317 321 331 331 332 333 332 332 331 328 324 320 319 318 316 321 330 334 335 335 338 338 338
288 289 289 290 290 291 291 291 291 291 292 293 294 297 299 298 299 302 306 312 317 317 318 331 332 331 331 331 329 327 324 321 319 319 318 316 324 332 334 335 336 338 338
288 288 289 289 290 291 290 290 291 291 292 292 293 295 297 298 299 300 302 306 312 317 316 316 330 331 331 331 328 326 324 322 319 318 318 317 320 326 333 335 336 336 337
288 288 288 289 290 289 289 290 291 291 292 291 293 295 296 298 298 299 300 302 306 312 315 314 313 331 331 331 329 326 324 322 320 317 316 316 317 320 325 334 337 337 336
287 287 288 289 288 289 289 289 290 290 290 291 293 293 294 296 297 298 299 300 304 308 313 314 314 313 329 329 327 326 324 322 319 318 316 315 314 316 319 326 332 335 336
286 286 286 287 287 287 287 288 288 289 290 291 292 293 293 295 296 298 299 301 303 306 309 315 316 315 316 327 326 325 325 322 319 318 316 315 314 315 315 319 322 325 331
285 285 285 286 286 286 287 287 287 288 289 290 291 292 294 295 296 296 297 300 303 304 306 312 316 319 319 325 326 325 323 322 320 318 317 317 315 315 315 315 318 319 322
285 284 285 285 285 285 285 284 284 285 287 289 291 293 293 294 295 295 296 298 301 302 305 308 308 310 317 324 322 321 319 320 318 318 317 317 315 315 316 316 317 318 320
283 283 284 284 285 285 285 285 285 286 287 289 290 292 293 294 296 296 296 296 298 301 304 305 306 307 316 323 319 314 308 310 313 316 317 316 316 316 314 316 316 316 317
282 282 284 284 284 284 284 285 285 286 287 288 289 291 292 294 296 296 297 297 298 299 302 304 307 308 309 319 322 314 307 307 310 313 314 314 315 314 314 315 315 316 316
282 282 283 283 283 284 284 284 283 284 283 286 288 290 291 293 294 296 297 298 298 300 301 304 308 310 311 313 320 319 314 312 309 305 310 315 315 313 313 314 314 315 315
282 281 282 282 282 283 283 284 283 283 286 287 287 288 290 292 293 294 297 297 297 299 302 304 307 308 311 313 316 317 314 311 311 307 305 308 312 314 314 313 313 313 313
281 280 280 281 281 282 282 282 282 283 285 285 286 287 288 290 291 295 297 298 298 299 301 304 307 308 308 312 316 317 317 313 310 308 306 308 309 311 313 313 312 312 311

GFSSE_sfc_thetae_291.txt.gz
Theta_e
309 316 328 331 335 339 343 346 347 347 347 345 345 345 344 347 349 349 350 352 352 352 352 351 350 349 348 346 346 346 346 346 346 347 344 342 339 339 341 342 344 343 346
311 317 326 328 330 332 334 339 342 344 346 347 345 346 345 345 348 349 352 352 351 350 351 350 349 349 348 347 347 348 347 347 345 344 343 342 343 341 340 342 343 343 346
310 315 318 325 326 328 330 330 332 334 340 344 346 345 345 345 345 348 349 349 350 350 349 349 349 347 348 348 348 348 347 346 344 342 341 338 339 341 341 342 343 344 346
307 311 315 322 322 323 325 324 326 329 331 334 338 343 345 344 345 346 348 349 348 348 348 348 347 347 347 347 347 348 346 345 342 340 338 338 338 342 342 342 342 345 346
302 306 313 317 319 320 321 321 322 323 325 328 331 334 339 342 344 345 347 348 347 348 348 347 348 347 347 346 346 346 346 343 339 336 336 337 339 341 342 343 343 345 344
300 302 310 314 316 317 317 317 317 318 320 321 323 327 329 333 337 342 344 346 347 348 347 347 347 347 346 345 345 346 344 341 337 335 335 335 337 340 343 343 343 344 343
299 299 303 310 311 313 313 314 314 315 316 316 317 320 323 325 328 334 339 343 345 346 346 347 347 345 345 344 344 344 342 338 334 332 332 334 337 339 343 343 343 344 344
298 299 299 303 307 308 309 310 311 312 312 313 314 314 316 318 322 329 333 339 343 344 345 346 345 343 343 343 343 342 339 334 328 330 331 333 334 338 343 343 344 343 343
298 297 297 298 300 302 304 306 307 308 309 309 309 310 311 312 317 321 324 330 337 342 343 343 343 343 342 342 342 340 336 330 329 327 328 331 333 338 342 343 344 344 344
297 296 296 297 297 297 299 302 303 304 305 305 305 305 306 307 309 312 321 322 326 331 340 341 342 342 342 340 339 336 332 328 328 325 327 329 332 337 340 342 343 343 342
296 296 296 296 296 296 298 298 300 300 301 301 301 302 302 303 304 308 314 323 322 323 334 340 341 340 338 335 334 333 329 333 327 326 325 326 331 337 340 340 341 341 341
294 294 295 295 295 295 295 297 297 297 297 298 299 299 300 301 304 305 310 318 320 320 325 335 338 336 332 339 337 331 336 331 326 325 326 326 331 336 339 339 340 340 340
294 294 295 294 295 295 295 296 295 296 296 297 297 298 299 300 302 304 308 313 318 317 321 332 336 338 338 337 337 336 334 332 328 325 324 325 331 335 336 338 339 339 339
292 292 293 293 293 294 294 294 294 294 295 295 296 297 298 299 300 301 303 306 312 319 317 318 330 335 337 336 337 336 333 330 327 325 324 322 329 335 336 336 338 339 339
291 291 292 292 292 293 293 293 293 293 294 294 295 296 298 297 298 300 302 304 307 312 317 318 318 329 334 335 335 334 332 329 327 325 325 317 324 333 337 336 336 337 339
290 290 291 291 292 292 291 292 292 293 293 293 293 294 296 298 298 299 300 301 304 307 312 316 315 314 321 333 333 333 332 330 326 324 324 323 321 328 334 338 338 337 337
290 290 290 291 292 290 290 291 292 292 292 292 292 294 295 297 297 297 299 300 302 304 306 310 313 315 314 325 331 331 332 330 327 324 322 323 322 321 327 335 337 338 339
289 289 289 290 289 289 289 290 290 291 291 292 293 294 295 295 296 296 297 299 302 304 305 306 311 313 313 313 326 330 329 330 327 324 323 322 321 322 322 328 333 336 338
288 288 288 288 288 288 288 289 289 290 290 291 292 293 294 295 296 296 297 299 301 303 304 306 308 313 314 313 315 328 329 328 327 325 323 322 322 321 322 321 323 326 333
288 287 287 287 288 288 288 288 288 288 289 290 291 292 294 295 295 296 297 298 299 301 302 304 306 311 317 318 316 321 327 326 326 325 324 322 322 321 321 321 322 321 322
287 286 286 286 287 287 286 285 285 285 287 288 290 292 293 294 294 294 296 297 298 299 300 302 304 306 310 314 317 317 323 325 324 322 323 322 322 320 319 321 322 322 321
285 285 285 286 286 286 286 286 286 285 286 288 290 290 292 294 295 295 295 297 297 298 298 300 303 304 307 311 313 316 309 312 321 322 322 321 320 320 319 318 321 321 321
284 284 285 285 286 286 286 286 285 286 286 287 289 289 291 292 293 293 294 295 296 299 298 299 301 302 303 307 313 315 307 308 311 315 318 318 318 317 319 317 318 320 320
284 284 284 285 285 286 285 284 283 283 282 285 286 288 289 290 291 293 293 294 295 298 299 300 301 303 306 304 309 315 319 314 310 307 313 315 317 317 316 317 317 318 319
284 283 283 284 284 284 284 284 283 282 283 285 286 286 287 290 291 292 293 294 294 297 299 299 300 303 305 306 308 308 316 313 316 310 307 311 314 316 316 317 317 317 317
283 283 283 282 283 284 284 283 282 281 281 282 284 285 286 288 290 291 292 294 296 297 298 299 301 302 305 307 309 310 310 312 312 311 307 311 311 314 316 317 317 316 316